| time (UTC) | temp F | wind direction | speed MPH | gust MPH | rain 1hr in | rain 24hr in | rain mn in | humidity % | barometer mb |
| 20260502210033 | 44 | 22 | 3.0 | 8.0 | 0.00 | 0.12 | 0.03 | 73 | 1015.8 |
| 20260502204607 | 42 | 13 | 3.0 | 7.0 | 0.00 | 0.15 | 0.03 | 75 | 1015.8 |
| 20260502203029 | 42 | 49 | 3.0 | 6.0 | 0.00 | 0.15 | 0.03 | 78 | 1015.8 |
| 20260502201609 | 41 | 30 | 3.0 | 7.0 | 0.00 | 0.15 | 0.03 | 79 | 1016.0 |
| 20260502200032 | 41 | 351 | 4.0 | 10.0 | 0.00 | 0.15 | 0.03 | 78 | 1016.0 |
| 20260502194617 | 42 | 34 | 2.0 | 9.0 | 0.00 | 0.18 | 0.03 | 76 | 1016.0 |
| 20260502193026 | 42 | 5 | 3.0 | 8.0 | 0.00 | 0.18 | 0.03 | 76 | 1016.0 |
| 20260502191530 | 42 | 26 | 1.0 | 9.0 | 0.00 | 0.18 | 0.03 | 76 | 1016.1 |
| 20260502190003 | 42 | 13 | 2.0 | 8.0 | 0.00 | 0.18 | 0.03 | 80 | 1016.2 |
| 20260502184549 | 42 | 28 | 2.0 | 6.0 | 0.00 | 0.23 | 0.03 | 82 | 1016.3 |
| 20260502183011 | 42 | 9 | 1.0 | 5.0 | 0.00 | 0.23 | 0.03 | 83 | 1016.4 |
| 20260502181555 | 41 | 350 | 3.0 | 6.0 | 0.00 | 0.23 | 0.03 | 86 | 1016.4 |
| 20260502163015 | 39 | 347 | 2.0 | 5.0 | 0.00 | 0.24 | 0.03 | 93 | 1016.3 |
| 20260502161559 | 39 | 15 | 1.0 | 4.0 | 0.00 | 0.24 | 0.03 | 94 | 1016.3 |
| 20260502151609 | 39 | 343 | 1.0 | 5.0 | 0.01 | 0.24 | 0.03 | 97 | 1015.8 |
| 20260502130109 | 37 | 259 | 0.0 | 2.0 | 0.01 | 0.22 | 0.01 | 97 | 1015.7 |
| 20260502123104 | 38 | 236 | 0.0 | 3.0 | 0.00 | 0.21 | 0.00 | 97 | 1015.9 |
| 20260502121527 | 37 | 234 | 0.0 | 2.0 | 0.00 | 0.21 | 0.00 | 97 | 1015.8 |
| 20260502114559 | 36 | 321 | 0.0 | 0.0 | 0.00 | 0.21 | 0.00 | 97 | 1016.0 |
| 20260502113025 | 35 | 321 | 0.0 | 0.0 | 0.00 | 0.21 | 0.00 | 96 | 1015.9 |
| 20260502111602 | 35 | 321 | 0.0 | 0.0 | 0.00 | 0.21 | 0.00 | 97 | 1015.9 |
| 20260502110034 | 34 | 321 | 0.0 | 0.0 | 0.00 | 0.21 | 0.00 | 97 | 1015.9 |
| 20260502104611 | 34 | 321 | 0.0 | 0.0 | 0.00 | 0.21 | 0.00 | 97 | 1016.0 |
| 20260502103043 | 34 | 319 | 0.0 | 0.0 | 0.00 | 0.21 | 0.00 | 97 | 1016.0 |
| 20260502101622 | 33 | 319 | 0.0 | 0.0 | 0.00 | 0.21 | 0.00 | 97 | 1016.1 |
| 20260502091501 | 31 | 319 | 0.0 | 0.0 | 0.00 | 0.21 | 0.00 | 96 | 1015.9 |
| 20260502070024 | 33 | 319 | 0.0 | 0.0 | 0.00 | 0.21 | 0.00 | 96 | 1015.8 |
| 20260502064556 | 32 | 319 | 0.0 | 0.0 | 0.00 | 0.21 | 0.00 | 96 | 1015.9 |
| 20260502063016 | 32 | 319 | 0.0 | 0.0 | 0.00 | 0.21 | 0.00 | 95 | 1016.0 |
| 20260502061552 | 32 | 319 | 0.0 | 0.0 | 0.00 | 0.21 | 0.00 | 95 | 1016.0 |
| 20260502060006 | 32 | 319 | 0.0 | 0.0 | 0.00 | 0.21 | 0.00 | 95 | 1016.0 |
| 20260502054535 | 33 | 319 | 0.0 | 0.0 | 0.00 | 0.21 | 0.00 | 95 | 1016.1 |
| 20260502053110 | 33 | 319 | 0.0 | 0.0 | 0.00 | 0.21 | 0.00 | 95 | 1016.2 |
| 20260502051605 | 33 | 319 | 0.0 | 0.0 | 0.00 | 0.21 | 0.00 | 95 | 1016.2 |
| 20260502050031 | 33 | 319 | 0.0 | 0.0 | 0.00 | 0.21 | 0.00 | 95 | 1016.2 |
| 20260502044608 | 34 | 319 | 0.0 | 0.0 | 0.00 | 0.21 | 0.00 | 95 | 1016.2 |
| 20260502043036 | 35 | 319 | 0.0 | 0.0 | 0.00 | 0.21 | 0.00 | 95 | 1016.3 |
| 20260502041505 | 36 | 319 | 0.0 | 0.0 | 0.00 | 0.21 | 0.00 | 95 | 1016.2 |
| 20260502040049 | 36 | 319 | 0.0 | 0.0 | 0.00 | 0.21 | 0.00 | 95 | 1016.2 |
| 20260502034514 | 36 | 319 | 0.0 | 0.0 | 0.00 | 0.21 | 0.21 | 95 | 1016.1 |
| 20260502033056 | 36 | 319 | 0.0 | 0.0 | 0.00 | 0.21 | 0.21 | 95 | 1015.8 |
| 20260502031520 | 37 | 319 | 0.0 | 0.0 | 0.00 | 0.21 | 0.21 | 95 | 1015.9 |
| 20260502030101 | 37 | 319 | 0.0 | 0.0 | 0.00 | 0.21 | 0.21 | 95 | 1016.0 |
| 20260502024535 | 38 | 319 | 0.0 | 0.0 | 0.00 | 0.21 | 0.21 | 95 | 1016.0 |
| 20260502023111 | 39 | 319 | 0.0 | 0.0 | 0.00 | 0.21 | 0.21 | 95 | 1015.9 |
| 20260502021529 | 39 | 282 | 0.0 | 0.0 | 0.00 | 0.21 | 0.21 | 94 | 1015.6 |
| 20260502020113 | 39 | 211 | 0.0 | 3.0 | 0.00 | 0.21 | 0.21 | 95 | 1015.5 |
| 20260502014535 | 39 | 313 | 0.0 | 3.0 | 0.00 | 0.21 | 0.21 | 95 | 1015.3 |
| 20260502013030 | 39 | 316 | 0.0 | 3.0 | 0.00 | 0.21 | 0.21 | 94 | 1015.1 |
| 20260502011611 | 39 | 360 | 0.0 | 2.0 | 0.00 | 0.21 | 0.21 | 94 | 1015.1 |
| 20260502010026 | 40 | 355 | 2.0 | 5.0 | 0.00 | 0.21 | 0.21 | 94 | 1014.7 |
| 20260502004600 | 40 | 9 | 2.0 | 6.0 | 0.00 | 0.21 | 0.21 | 94 | 1014.1 |
| 20260502003023 | 40 | 19 | 1.0 | 10.0 | 0.00 | 0.21 | 0.21 | 94 | 1013.6 |
| 20260502001553 | 40 | 350 | 1.0 | 10.0 | 0.01 | 0.21 | 0.21 | 94 | 1013.3 |
| 20260502000030 | 41 | 10 | 3.0 | 9.0 | 0.03 | 0.21 | 0.21 | 94 | 1013.2 |
| 20260501234606 | 42 | 41 | 4.0 | 10.0 | 0.08 | 0.21 | 0.21 | 94 | 1012.7 |
| 20260501233030 | 42 | 349 | 1.0 | 9.0 | 0.08 | 0.21 | 0.21 | 94 | 1012.0 |
| 20260501231612 | 42 | 9 | 3.0 | 9.0 | 0.07 | 0.20 | 0.20 | 93 | 1012.2 |
| 20260501230036 | 43 | 5 | 3.0 | 12.0 | 0.05 | 0.18 | 0.18 | 92 | 1012.0 |
| 20260501224607 | 46 | 341 | 1.0 | 3.0 | 0.00 | 0.13 | 0.13 | 93 | 1011.6 |
| 20260501223032 | 46 | 238 | 0.0 | 2.0 | 0.00 | 0.13 | 0.13 | 93 | 1011.3 |
| 20260501221619 | 46 | 230 | 0.0 | 0.0 | 0.00 | 0.13 | 0.13 | 94 | 1011.3 |
| 20260501220040 | 46 | 230 | 0.0 | 0.0 | 0.01 | 0.13 | 0.13 | 94 | 1011.3 |
| 20260501214513 | 46 | 230 | 0.0 | 0.0 | 0.01 | 0.13 | 0.13 | 93 | 1011.4 |
| 20260501213042 | 46 | 230 | 0.0 | 0.0 | 0.02 | 0.13 | 0.13 | 93 | 1011.5 |
| 20260501211501 | 45 | 230 | 0.0 | 1.0 | 0.03 | 0.13 | 0.13 | 93 | 1011.5 |